FW9909 Weather Reports


Display with metric or nautical units.
time (UTC)temp
F
wind
direction
speed
MPH
gust
MPH
rain 1hr
in
rain 24hr
in
rain mn
in
humidity
%
barometer
mb
20260903160027 91 236 4.0 9.0 0.00 0.00 0.00 51 1016.5
20260903155025 91 238 4.0 8.0 0.00 0.00 0.00 51 1016.4
20260903154043 91 260 4.0 7.0 0.00 0.00 0.00 51 1016.6
20260903153022 90 259 5.0 12.0 0.00 0.00 0.00 53 1016.5
20260903152019 89 257 6.0 11.0 0.00 0.00 0.00 55 1016.6
20260903151018 88 257 5.0 12.0 0.00 0.00 0.00 56 1016.6
20260903150016 87 259 5.0 12.0 0.00 0.00 0.00 57 1016.5
20260903145034 88 265 5.0 10.0 0.00 0.00 0.00 58 1016.6
20260903144032 87 240 4.0 11.0 0.00 0.00 0.00 60 1016.7
20260903143030 86 261 3.0 6.0 0.00 0.00 0.00 61 1016.7
20260903142049 86 270 4.0 8.0 0.00 0.00 0.00 63 1016.8
20260903141046 85 253 3.0 6.0 0.00 0.00 0.00 64 1016.8
20260903140025 84 236 4.0 7.0 0.00 0.00 0.00 66 1017.0
20260903135023 83 246 3.0 6.0 0.00 0.00 0.00 68 1017.0
20260903134021 82 247 3.0 7.0 0.00 0.00 0.00 70 1017.1
20260903133019 81 238 3.0 8.0 0.00 0.00 0.00 72 1017.1
20260903132017 79 229 3.0 5.0 0.00 0.00 0.00 75 1017.1
20260903131015 79 308 3.0 6.0 0.00 0.00 0.00 76 1017.0
20260903130034 78 243 2.0 5.0 0.00 0.00 0.00 78 1016.9
20260903125032 77 205 3.0 6.0 0.00 0.00 0.00 80 1016.8
20260903124050 75 167 2.0 4.0 0.00 0.00 0.00 82 1016.7
20260903123028 74 138 2.0 4.0 0.00 0.00 0.00 84 1016.7
20260903122046 74 101 2.0 3.0 0.00 0.00 0.00 85 1016.8
20260903121024 74 37 1.0 2.0 0.00 0.00 0.00 85 1016.6
20260903120022 74 93 2.0 4.0 0.00 0.00 0.00 84 1016.7
20260903115022 74 119 1.0 3.0 0.00 0.00 0.00 84 1016.6
20260903114018 74 122 2.0 3.0 0.00 0.00 0.00 83 1016.6
20260903113017 74 93 1.0 3.0 0.00 0.00 0.00 82 1016.6
20260903112035 74 21 2.0 6.0 0.00 0.00 0.00 82 1016.5
20260903111033 74 173 2.0 3.0 0.00 0.00 0.00 83 1016.5
20260903110031 74 77 2.0 4.0 0.00 0.00 0.00 82 1016.4
20260903105029 75 32 1.0 3.0 0.00 0.00 0.00 82 1016.3
20260903104027 75 15 3.0 6.0 0.00 0.00 0.00 81 1016.1
20260903103025 75 102 2.0 4.0 0.00 0.00 0.00 81 1016.1
20260903102023 75 10 1.0 4.0 0.00 0.00 0.00 81 1016.3
20260903101022 75 58 1.0 3.0 0.00 0.00 0.00 80 1016.1
20260903100020 75 137 2.0 4.0 0.00 0.00 0.00 80 1016.1
20260903095018 75 81 2.0 4.0 0.00 0.00 0.00 80 1016.0
20260903094016 76 26 2.0 3.0 0.00 0.00 0.00 79 1016.0
20260903093034 76 14 3.0 5.0 0.00 0.00 0.00 79 1015.9
20260903092032 76 46 1.0 3.0 0.00 0.00 0.00 79 1015.9
20260903091030 76 44 1.0 2.0 0.00 0.00 0.00 78 1015.9
20260903090048 76 337 0.0 2.0 0.00 0.00 0.00 78 1015.8
20260903085026 76 92 0.0 2.0 0.00 0.00 0.00 77 1016.0
20260903083023 76 22 0.0 2.0 0.00 0.00 0.00 77 1015.8
20260903082021 77 20 1.0 2.0 0.00 0.00 0.00 76 1015.8
20260903081019 77 66 0.0 2.0 0.00 0.00 0.00 75 1015.8
20260903080037 77 86 1.0 3.0 0.00 0.00 0.00 75 1015.8
20260903075016 77 89 1.0 2.0 0.00 0.00 0.00 74 1015.8
20260903074034 78 32 0.0 2.0 0.00 0.00 0.00 74 1015.8
20260903073032 78 85 1.0 3.0 0.00 0.00 0.00 73 1015.7
20260903072030 78 358 1.0 2.0 0.00 0.00 0.00 73 1015.8
20260903071028 78 42 1.0 3.0 0.00 0.00 0.00 72 1015.8
20260903070026 78 359 1.0 2.0 0.00 0.00 0.00 71 1015.8
20260903065024 79 28 1.0 2.0 0.00 0.00 0.00 71 1015.7
20260903064022 79 97 0.0 2.0 0.00 0.00 0.00 71 1015.7
20260903063020 79 56 0.0 2.0 0.00 0.00 0.00 70 1015.7
20260903062019 79 66 1.0 2.0 0.00 0.00 0.00 70 1015.7
20260903061157 79 7 0.0 2.0 0.00 0.00 0.00 69 1015.8
20260903060035 79 41 1.0 2.0 0.00 0.00 0.00 69 1015.8
20260903055033 80 53 0.0 3.0 0.00 0.00 0.00 68 1015.7
20260903054031 80 47 0.0 2.0 0.00 0.00 0.00 68 1015.8
20260903053029 80 21 0.0 2.0 0.00 0.00 0.00 67 1015.8
20260903052027 80 43 0.0 2.0 0.00 0.00 0.00 66 1015.6
20260903051025 81 358 0.0 2.0 0.00 0.00 0.00 66 1015.6
20260903050023 81 76 1.0 2.0 0.00 0.00 0.00 65 1015.5
20260903045022 81 314 0.0 2.0 0.00 0.00 0.00 64 1015.6
20260903044020 82 99 1.0 2.0 0.00 0.00 0.00 64 1015.5
20260903043018 81 15 1.0 3.0 0.00 0.00 0.00 63 1015.5
20260903042016 82 332 0.0 2.0 0.00 0.00 0.00 62 1015.5
20260903041054 82 41 1.0 3.0 0.00 0.00 0.00 61 1015.5
20260903040032 83 276 1.0 4.0 0.00 0.00 0.00 60 1015.4
20260903035030 83 267 1.0 3.0 0.00 0.00 0.00 59 1015.5
20260903034029 83 294 1.0 3.0 0.00 0.00 0.00 58 1015.6
20260903033026 83 258 1.0 4.0 0.00 0.00 0.00 58 1015.5
20260903032025 84 322 1.0 2.0 0.00 0.00 0.00 57 1015.4
20260903031043 84 288 1.0 2.0 0.00 0.00 0.00 56 1015.3
20260903030021 85 291 1.0 2.0 0.00 0.00 0.00 55 1015.3
20260903025039 85 305 1.0 4.0 0.00 0.00 0.00 54 1015.4
20260903024037 85 281 1.0 3.0 0.00 0.00 0.00 53 1015.2
20260903023015 86 173 0.0 3.0 0.00 0.00 0.00 52 1015.1
20260903022033 86 258 2.0 5.0 0.00 0.00 0.00 51 1014.9
20260903021032 86 248 2.0 4.0 0.00 0.00 0.00 50 1014.9
20260903020050 87 243 1.0 4.0 0.00 0.00 0.00 49 1014.8
20260903015028 87 225 1.0 3.0 0.00 0.00 0.00 48 1014.6
20260903014026 87 275 2.0 3.0 0.00 0.00 0.00 48 1014.5
20260903013024 87 321 1.0 3.0 0.00 0.00 0.00 48 1014.3
20260903012022 87 340 1.0 2.0 0.00 0.00 0.00 47 1014.1
20260903011020 88 340 0.0 2.0 0.00 0.00 0.00 46 1014.0
20260903010039 89 42 0.0 2.0 0.00 0.00 0.00 44 1014.1
20260903005016 90 31 1.0 2.0 0.00 0.00 0.00 43 1014.0
20260903004035 91 26 0.0 1.0 0.00 0.00 0.00 42 1013.9
20260903003033 92 23 0.0 2.0 0.00 0.00 0.00 41 1014.0
20260903002051 93 311 1.0 2.0 0.00 0.00 0.00 40 1013.9
20260903001029 94 267 2.0 5.0 0.00 0.00 0.00 39 1014.0
20260903000027 94 296 1.0 3.0 0.00 0.00 0.00 38 1014.0
20260902235046 95 277 1.0 3.0 0.00 0.00 0.00 37 1014.0
20260902234024 96 22 1.0 4.0 0.00 0.00 0.00 36 1014.0
20260902233022 97 282 2.0 4.0 0.00 0.00 0.00 36 1014.1
20260902232020 98 276 2.0 4.0 0.00 0.00 0.00 35 1014.1
20260902231018 98 263 2.0 5.0 0.00 0.00 0.00 34 1014.2
20260902230016 99 269 1.0 4.0 0.00 0.00 0.00 34 1014.3
20260902225034 100 111 2.0 6.0 0.00 0.00 0.00 33 1014.3
20260902224032 101 219 2.0 5.0 0.00 0.00 0.00 32 1014.3
20260902223111 101 241 2.0 5.0 0.00 0.00 0.00 32 1014.4
20260902222029 102 264 2.0 5.0 0.00 0.00 0.00 32 1014.4
20260902221027 102 272 1.0 4.0 0.00 0.00 0.00 31 1014.4
20260902220025 102 245 4.0 7.0 0.00 0.00 0.00 31 1014.5
20260902215023 103 276 2.0 5.0 0.00 0.00 0.00 30 1014.5
20260902214021 101 288 2.0 4.0 0.00 0.00 0.00 32 1014.6
20260902213019 101 264 4.0 9.0 0.00 0.00 0.00 32 1014.5
20260902212017 101 262 3.0 6.0 0.00 0.00 0.00 32 1014.7
20260902211015 101 277 3.0 7.0 0.00 0.00 0.00 32 1014.8
20260902210034 102 255 4.0 10.0 0.00 0.00 0.00 32 1015.0
20260902205052 101 233 2.0 4.0 0.00 0.00 0.00 35 1015.1
20260902204030 100 121 3.0 7.0 0.00 0.00 0.00 35 1015.2
20260902203028 98 317 2.0 4.0 0.00 0.00 0.00 37 1015.4
20260902202026 99 13 2.0 7.0 0.00 0.00 0.00 37 1015.5
20260902201044 98 352 1.0 3.0 0.00 0.00 0.00 37 1015.7
20260902200022 99 264 3.0 7.0 0.00 0.00 0.00 36 1015.6
20260902195020 99 279 3.0 6.0 0.00 0.00 0.00 36 1015.9
20260902194019 97 358 2.0 4.0 0.00 0.00 0.00 38 1016.0
20260902193016 98 293 2.0 7.0 0.00 0.00 0.00 38 1016.0
20260902192035 97 287 1.0 4.0 0.00 0.00 0.00 38 1016.2
20260902191033 99 281 2.0 5.0 0.00 0.00 0.00 37 1016.4
20260902190031 100 143 2.0 6.0 0.00 0.00 0.00 36 1016.5
20260902185029 100 276 4.0 7.0 0.00 0.00 0.00 37 1016.6
20260902184027 101 254 5.0 8.0 0.00 0.00 0.00 37 1016.8
20260902183046 100 238 4.0 11.0 0.00 0.00 0.00 36 1016.9
20260902182023 99 296 3.0 9.0 0.00 0.00 0.00 38 1017.0
20260902181022 100 249 4.0 9.0 0.00 0.00 0.00 37 1017.2
20260902180020 99 266 3.0 6.0 0.00 0.00 0.00 39 1017.2
20260902175018 99 265 4.0 7.0 0.00 0.00 0.00 39 1017.4
20260902174016 97 287 3.0 7.0 0.00 0.00 0.00 40 1017.6
20260902173034 96 280 2.0 6.0 0.00 0.00 0.00 41 1017.7
20260902172032 95 259 3.0 6.0 0.00 0.00 0.00 42 1017.8
20260902171030 95 255 4.0 8.0 0.00 0.00 0.00 43 1017.9
20260902170028 96 256 4.0 9.0 0.00 0.00 0.00 42 1018.1
20260902165026 94 276 3.0 7.0 0.00 0.00 0.00 45 1018.2
20260902164025 95 256 3.0 8.0 0.00 0.00 0.00 44 1018.3
20260902163023 94 275 3.0 7.0 0.00 0.00 0.00 46 1018.4
20260902162021 93 262 3.0 6.0 0.00 0.00 0.00 48 1018.5
20260902161019 92 258 4.0 9.0 0.00 0.00 0.00 47 1018.5